Torna al catalogo

KUIPER-00091

AttivoComunicazioniLEO
NORAD 64836·PAYLOAD·🇺🇸 United States

Lanciato Jul 16, 2025 da Cape Canaveral Space Force Station

Loading…

Prossimi Passaggi (prossime 24 ore)

TLE

AggiornatoSource: CelesTrak SupGP

Epoca: Sep 14, 2026, 20:30 UTC

1 64836C 25151W   26257.85442130 -.00001128  00000+0 -14763-3 0  2574
2 64836  51.8999 166.6324 0001071  88.4496  48.6474 14.79929024    17

Traccia KUIPER-00091 in tempo reale con AllMySat

Download on the App Store